Pipestone, MN

12:45 PM CDT on October 01, 2016 (GMT -0500)
Pipestone Municipal

Weather History for KPQN - September, 2013

Change the Weather History Date:

Monday, September 30, 2013

  Actual Average Record
Temperature  
Mean Temperature 68 °F -  
Max Temperature 80 °F 63 °F 84 °F (2000)
Min Temperature 55 °F 40 °F 28 °F (2003)
Cooling Degree Days 2    
Growing Degree Days 18 (Base 50)    
Moisture  
Dew Point 45 °F    
Average Humidity 47    
Maximum Humidity 67    
Minimum Humidity 26    
Precipitation  
Precipitation 0.00 in - - ()
Sea Level Pressure  
Sea Level Pressure 29.65 in    
Wind  
Wind Speed 13 mph (SSW)    
Max Wind Speed 20 mph    
Max Gust Speed 26 mph    
Visibility 10 miles    
Events      
Averages and records for this station are not official NWS values.
T = Trace of Precipitation, MM = Missing Value Source: NWS Daily Summary

Daily Weather History Graph

Daily Weather History Graph

Search for Another Location

Airport or City:

Trip Planner

Search our weather history database for the weather conditions in past years. The results will help you decide how hot, cold, wet, or windy it might be!

Date:

Astronomy

Sep. 30, 2013 Rise Set
Actual Time 7:22 AM CDT 7:07 PM CDT
Civil Twilight 6:53 AM CDT 7:36 PM CDT
Nautical Twilight 6:19 AM CDT 8:09 PM CDT
Astronomical Twilight 5:45 AM CDT 8:43 PM CDT
Moon 2:52 AM CDT (9/30) 4:45 PM CDT (9/30)
Length of Visible Light 12h 42m
Length of Day
11h 45m
Waning Crescent, 19% of the Moon is Illuminated
Sep 30
Waning Crescent
Oct 4
New
Oct 11
First Quarter
Oct 18
Full
Oct 26
Last Quarter

Hourly Weather History & Observations

Time (CDT) Temp. Dew Point Humidity Pressure Visibility Wind Dir Wind Speed Gust Speed Precip Events Conditions
12:13 AM 62.6 °F 42.8 °F 48% 29.74 in 10.0 mi SSW 12.7 mph 23.0 mph N/A   Clear
12:33 AM 62.6 °F 42.8 °F 48% 29.73 in 10.0 mi SSW 17.3 mph - N/A   Clear
12:53 AM 62.6 °F 42.8 °F 48% 29.72 in 10.0 mi SSW 18.4 mph 25.3 mph N/A   Clear
1:13 AM 62.6 °F 42.8 °F 48% 29.72 in 10.0 mi SSW 18.4 mph 25.3 mph N/A   Clear
1:34 AM 62.6 °F 42.8 °F 48% 29.71 in 10.0 mi SSW 19.6 mph 26.5 mph N/A   Clear
1:53 AM 62.6 °F 42.8 °F 48% 29.71 in 10.0 mi SSW 18.4 mph 26.5 mph N/A   Clear
2:13 AM 62.6 °F 42.8 °F 48% 29.71 in 10.0 mi SSW 17.3 mph 21.9 mph N/A   Clear
2:34 AM 60.8 °F 42.8 °F 52% 29.71 in 10.0 mi SSW 16.1 mph 24.2 mph N/A   Clear
2:53 AM 60.8 °F 42.8 °F 52% 29.71 in 10.0 mi SSW 15.0 mph 23.0 mph N/A   Clear
3:13 AM 60.8 °F 42.8 °F 52% 29.70 in 10.0 mi SSW 15.0 mph 21.9 mph N/A   Clear
3:33 AM 60.8 °F 42.8 °F 52% 29.69 in 10.0 mi SSW 13.8 mph 20.7 mph N/A   Clear
3:53 AM 59.0 °F 42.8 °F 55% 29.69 in 10.0 mi SSW 13.8 mph 19.6 mph N/A   Clear
4:13 AM 59.0 °F 42.8 °F 55% 29.68 in 10.0 mi SSW 13.8 mph - N/A   Clear
4:33 AM 59.0 °F 42.8 °F 55% 29.68 in 10.0 mi SSW 13.8 mph - N/A   Clear
4:53 AM 57.2 °F 42.8 °F 59% 29.67 in 10.0 mi SSW 13.8 mph - N/A   Clear
5:14 AM 57.2 °F 42.8 °F 59% 29.68 in 10.0 mi SSW 11.5 mph 17.3 mph N/A   Clear
5:33 AM 57.2 °F 44.6 °F 63% 29.68 in 10.0 mi South 9.2 mph - N/A   Clear
5:53 AM 57.2 °F 44.6 °F 63% 29.68 in 10.0 mi SSW 9.2 mph - N/A   Clear
6:14 AM 55.4 °F 44.6 °F 67% 29.67 in 10.0 mi South 9.2 mph - N/A   Clear
6:33 AM 55.4 °F 44.6 °F 67% 29.67 in 10.0 mi South 9.2 mph - N/A   Clear
6:53 AM 55.4 °F 44.6 °F 67% 29.67 in 10.0 mi SSW 10.4 mph - N/A   Clear
7:14 AM 55.4 °F 44.6 °F 67% 29.67 in 10.0 mi SSW 9.2 mph - N/A   Clear
7:33 AM 55.4 °F 44.6 °F 67% 29.67 in 10.0 mi SSW 11.5 mph - N/A   Clear
7:53 AM 55.4 °F 44.6 °F 67% 29.67 in 10.0 mi SSW 10.4 mph - N/A   Clear
8:13 AM 55.4 °F 44.6 °F 67% 29.67 in 10.0 mi SSW 11.5 mph - N/A   Clear
8:33 AM 57.2 °F 44.6 °F 63% 29.66 in 10.0 mi SSW 12.7 mph - N/A   Clear
8:53 AM 57.2 °F 46.4 °F 67% 29.66 in 10.0 mi SSW 12.7 mph 18.4 mph N/A   Clear
9:13 AM 59.0 °F 46.4 °F 63% 29.66 in 10.0 mi SSW 13.8 mph 17.3 mph N/A   Clear
9:33 AM 60.8 °F 46.4 °F 59% 29.66 in 10.0 mi SSW 13.8 mph 17.3 mph N/A   Clear
9:52 AM 60.8 °F 46.4 °F 59% 29.65 in 10.0 mi SSW 17.3 mph 23.0 mph N/A   Clear
10:13 AM 62.6 °F 46.4 °F 55% 29.64 in 10.0 mi SSW 12.7 mph 19.6 mph N/A   Clear
10:33 AM 64.4 °F 46.4 °F 52% 29.66 in 10.0 mi SSW 12.7 mph - N/A   Clear
10:52 AM 66.2 °F 46.4 °F 49% 29.67 in 10.0 mi SW 12.7 mph 20.7 mph N/A   Clear
11:13 AM 66.2 °F 46.4 °F 49% 29.66 in 10.0 mi SW 12.7 mph - N/A   Clear
11:33 AM 68.0 °F 46.4 °F 46% 29.66 in 10.0 mi SW 11.5 mph - N/A   Clear
11:54 AM 69.8 °F 46.4 °F 43% 29.65 in 10.0 mi SSW 11.5 mph - N/A   Clear
12:13 PM 71.6 °F 46.4 °F 41% 29.65 in 10.0 mi SW 11.5 mph 16.1 mph N/A   Clear
12:33 PM 71.6 °F 46.4 °F 41% 29.65 in 10.0 mi SW 10.4 mph - N/A   Clear
12:53 PM 73.4 °F 44.6 °F 36% 29.65 in 10.0 mi SW 9.2 mph - N/A   Clear
1:13 PM 75.2 °F 44.6 °F 34% 29.64 in 10.0 mi SW 12.7 mph - N/A   Clear
1:32 PM 75.2 °F 44.6 °F 34% 29.63 in 10.0 mi SW 10.4 mph 17.3 mph N/A   Clear
1:53 PM 75.2 °F 44.6 °F 34% 29.63 in 10.0 mi SW 12.7 mph 18.4 mph N/A   Clear
2:13 PM 77.0 °F 44.6 °F 32% 29.62 in 10.0 mi SW 15.0 mph 20.7 mph N/A   Clear
2:32 PM 78.8 °F 44.6 °F 30% 29.62 in 10.0 mi SW 15.0 mph 19.6 mph N/A   Clear
2:53 PM 78.8 °F 44.6 °F 30% 29.62 in 10.0 mi SW 12.7 mph 19.6 mph N/A   Clear
3:13 PM 80.6 °F 44.6 °F 28% 29.62 in 10.0 mi SW 13.8 mph 20.7 mph N/A   Clear
3:33 PM 78.8 °F 42.8 °F 28% 29.62 in 10.0 mi SW 15.0 mph 20.7 mph N/A   Clear
3:53 PM 78.8 °F 44.6 °F 30% 29.61 in 10.0 mi SW 16.1 mph - N/A   Clear
4:13 PM 80.6 °F 44.6 °F 28% 29.61 in 10.0 mi SSW 13.8 mph 19.6 mph N/A   Clear
4:32 PM 80.6 °F 44.6 °F 28% 29.60 in 10.0 mi SW 13.8 mph 20.7 mph N/A   Clear
4:53 PM 80.6 °F 42.8 °F 26% 29.60 in 10.0 mi SW 13.8 mph 20.7 mph N/A   Clear
5:12 PM 80.6 °F 42.8 °F 26% 29.60 in 10.0 mi SW 12.7 mph 17.3 mph N/A   Clear
5:33 PM 80.6 °F 42.8 °F 26% 29.59 in 10.0 mi SW 12.7 mph 19.6 mph N/A   Clear
5:53 PM 80.6 °F 42.8 °F 26% 29.60 in 10.0 mi SW 11.5 mph - N/A   Clear
6:13 PM 78.8 °F 44.6 °F 30% 29.60 in 10.0 mi SW 9.2 mph - N/A   Clear
6:33 PM 77.0 °F 44.6 °F 32% 29.60 in 10.0 mi SSW 5.8 mph - N/A   Clear
6:53 PM 73.4 °F 46.4 °F 38% 29.60 in 10.0 mi SSW 4.6 mph - N/A   Clear
7:13 PM 71.6 °F 46.4 °F 41% 29.61 in 10.0 mi SSW 3.5 mph - N/A   Clear
7:33 PM 69.8 °F 46.4 °F 43% 29.61 in 10.0 mi South 6.9 mph - N/A   Clear
7:53 PM 71.6 °F 44.6 °F 38% 29.61 in 10.0 mi South 8.1 mph - N/A   Clear
8:13 PM 69.8 °F 44.6 °F 40% 29.61 in 10.0 mi South 9.2 mph - N/A   Clear
8:33 PM 71.6 °F 46.4 °F 41% 29.61 in 10.0 mi SSW 10.4 mph - N/A   Clear
8:53 PM 71.6 °F 46.4 °F 41% 29.62 in 10.0 mi SSW 10.4 mph - N/A   Clear
9:13 PM 69.8 °F 46.4 °F 43% 29.62 in 10.0 mi South 8.1 mph - N/A   Clear
9:33 PM 69.8 °F 46.4 °F 43% 29.61 in 10.0 mi South 9.2 mph - N/A   Clear
9:53 PM 69.8 °F 48.2 °F 46% 29.61 in 10.0 mi South 10.4 mph 16.1 mph N/A   Clear
10:13 PM 69.8 °F 48.2 °F 46% 29.61 in 10.0 mi SSW 15.0 mph 18.4 mph N/A   Clear
10:33 PM 69.8 °F 48.2 °F 46% 29.61 in 10.0 mi SSW 13.8 mph - N/A   Clear
10:53 PM 68.0 °F 48.2 °F 49% 29.61 in 10.0 mi SSW 12.7 mph 18.4 mph N/A   Clear
11:13 PM 66.2 °F 50.0 °F 56% 29.61 in 10.0 mi SSW 12.7 mph 19.6 mph N/A   Clear
11:33 PM 66.2 °F 50.0 °F 56% 29.61 in 10.0 mi SSW 13.8 mph 18.4 mph N/A   Clear
11:53 PM 66.2 °F 50.0 °F 56% 29.61 in 10.0 mi SSW 13.8 mph - N/A   Clear